Wind_Speed
15 17 19 20 22 25 27 28 30 29 30 29 32 33 33 32 32 31 30 29 28 27 27 27 27 28 28 28 27 26 25 24 24 23 22 23 24 26 27 28 29 29 28 28
16 18 20 20 21 24 26 27 29 29 28 29 31 31 31 31 30 30 30 29 28 27 26 26 26 26 27 27 25 24 23 22 23 22 20 19 19 20 20 21 22 23 24 24
18 20 22 21 23 24 26 27 29 30 29 29 30 30 31 31 30 29 29 28 28 27 26 25 25 25 25 25 23 22 21 20 21 20 17 15 15 15 16 17 19 19 19 19
20 21 22 23 26 26 27 27 29 30 30 30 31 31 31 31 30 29 28 28 27 26 25 24 24 23 23 22 21 19 18 18 18 17 16 14 14 14 14 13 13 13 14 15
24 25 24 25 27 28 29 27 30 31 32 32 33 33 33 33 31 31 30 28 27 26 25 24 23 22 22 20 19 18 17 16 15 14 14 14 12 11 10 11 11 11 12 13
29 29 29 30 31 30 31 30 32 32 33 34 35 34 33 34 33 32 31 29 28 27 25 24 23 21 20 19 17 16 15 14 13 12 12 12 11 10 9 9 10 10 11 11
31 32 33 33 33 33 34 35 35 34 35 36 36 35 34 35 33 32 31 29 29 28 26 24 23 21 20 18 16 15 14 13 12 11 10 10 10 10 9 9 9 9 10 10
33 33 35 35 35 36 37 37 37 38 38 38 38 37 36 36 35 34 32 30 29 28 27 25 23 22 20 18 16 14 13 12 11 10 10 10 9 9 9 9 9 9 9 9
36 36 37 37 38 40 41 40 40 40 40 40 39 38 37 36 35 34 33 31 29 28 27 25 24 22 21 19 17 15 13 12 12 11 11 10 9 9 9 9 9 9 9 8
38 39 40 40 41 42 42 42 42 42 42 41 40 39 37 36 35 34 33 32 29 28 26 26 25 23 22 20 18 16 15 13 13 12 12 12 12 11 11 11 10 10 10 9
42 43 44 44 44 45 45 44 44 43 43 42 41 39 38 36 35 34 33 32 31 29 28 27 26 25 24 22 20 19 17 16 14 13 13 12 12 12 12 12 11 11 11 10
46 47 48 49 50 50 49 48 47 46 44 42 41 39 38 36 35 34 33 32 31 29 28 28 27 26 25 23 21 20 19 18 17 15 15 14 14 13 13 12 12 12 12 12
49 51 52 53 54 53 52 51 49 48 46 44 42 39 38 37 36 34 33 32 31 30 29 28 27 26 25 24 23 22 21 20 19 18 17 17 16 16 15 14 14 13 13 13
52 53 53 53 54 53 52 51 50 49 48 46 44 42 41 40 39 37 35 34 33 32 31 29 27 27 26 26 25 24 23 22 22 21 20 19 19 18 18 17 16 16 16 15
53 54 54 54 54 54 54 53 53 52 51 51 49 47 45 43 42 40 39 37 35 34 32 31 28 27 26 26 25 25 24 24 23 23 22 22 21 21 20 20 19 18 18 17
55 55 56 57 57 58 59 59 59 57 55 55 55 53 50 46 44 43 41 40 38 36 34 33 31 29 28 27 26 25 25 24 24 24 24 23 23 23 23 23 22 21 21 20
60 60 61 62 62 63 64 65 64 62 60 58 57 57 56 52 47 45 43 41 40 38 35 34 32 30 29 28 27 27 26 26 25 24 24 25 25 25 25 25 25 24 24 23
63 64 65 66 66 67 66 66 66 66 65 62 60 58 57 55 52 49 45 42 41 39 37 36 35 33 30 29 28 28 28 27 26 25 24 24 24 25 26 26 26 26 26 25
65 66 66 66 65 65 64 62 60 58 58 57 55 54 53 53 52 51 47 44 43 40 40 39 38 35 32 30 29 28 27 26 25 24 23 23 23 24 25 25 26 27 27 26
63 63 63 62 61 60 58 57 55 53 50 49 48 48 48 47 47 48 47 45 43 41 42 42 40 37 34 31 29 28 27 26 25 24 23 22 22 22 24 25 26 27 27 27
60 58 56 55 54 52 51 50 49 47 44 43 43 42 40 39 40 42 43 42 42 43 43 43 41 38 35 33 31 29 27 26 25 24 24 22 22 22 22 23 24 26 27 27
54 52 51 50 48 46 45 44 42 40 38 37 37 37 37 35 35 37 39 40 40 41 41 43 42 41 39 36 33 31 29 27 26 25 24 23 22 22 22 22 23 24 25 26
50 49 48 46 44 43 42 40 39 38 36 34 32 31 31 32 32 31 32 36 40 40 40 41 42 41 40 38 35 32 30 28 27 25 24 23 22 21 21 22 23 24 24 25
46 46 45 44 42 40 39 38 38 37 35 33 31 29 27 26 27 29 31 34 38 39 38 38 39 39 39 38 36 33 31 28 27 26 25 24 23 23 22 22 22 23 23 23
44 43 43 41 40 39 39 38 36 35 33 31 29 25 22 21 22 24 28 32 36 37 37 36 36 37 37 36 34 32 31 29 27 26 25 24 24 23 22 22 22 22 21 21
41 41 40 39 39 39 37 36 35 34 32 30 28 24 20 17 19 22 26 30 33 35 35 34 33 33 34 34 33 32 31 30 29 28 26 25 24 24 23 23 23 21 20 20
38 38 38 37 37 36 35 35 34 33 32 30 27 22 17 14 15 21 26 29 31 32 32 32 31 30 31 31 31 31 30 30 29 28 27 25 25 24 23 23 23 21 21 20
Wind_Direction
318 311 310 311 307 304 304 304 302 303 300 297 292 292 292 290 289 289 289 290 292 295 297 300 303 306 307 308 307 304 300 296 289 280 269 263 260 255 253 250 250 246 245 247
322 317 319 317 310 309 310 310 308 306 305 302 300 297 295 294 292 289 288 288 290 293 296 298 300 304 306 307 306 305 301 297 293 286 278 270 262 252 245 243 244 242 244 245
320 316 318 317 314 315 316 316 312 309 309 306 304 304 302 299 297 293 289 288 290 292 293 296 298 303 305 306 306 305 303 299 295 292 286 279 267 264 257 252 250 252 251 251
318 316 317 316 312 313 315 315 311 311 312 309 306 306 304 301 300 297 293 289 288 290 291 292 295 299 303 304 305 305 302 300 297 294 290 289 284 279 275 270 262 255 254 257
318 318 320 315 311 313 314 314 309 310 311 309 307 307 305 302 301 298 295 291 287 287 287 289 291 295 298 301 302 301 301 299 296 289 287 287 284 282 277 275 269 265 262 260
317 318 319 316 313 314 312 311 308 308 308 307 306 305 303 301 301 299 296 292 287 284 283 284 287 290 293 295 297 296 295 295 289 283 279 279 278 277 273 268 264 261 259 258
314 315 314 312 312 311 308 307 306 305 304 303 303 303 301 300 299 298 296 291 287 281 279 278 280 284 287 290 292 292 289 287 284 277 270 268 266 264 264 259 255 250 250 252
313 313 310 309 309 305 303 303 303 302 301 301 301 301 299 297 297 297 294 290 287 281 275 273 273 276 280 283 285 285 282 277 274 270 266 264 259 255 254 255 254 252 249 245
310 309 306 306 303 302 302 302 302 300 299 298 298 298 297 295 295 294 293 289 285 280 273 269 268 270 272 275 277 279 276 269 264 262 261 257 254 252 250 249 248 248 246 244
307 306 305 303 301 301 301 300 299 298 297 296 295 294 294 293 292 291 290 288 283 278 272 268 266 265 266 267 268 270 269 264 260 258 255 251 248 248 246 245 245 246 247 248
306 305 305 303 301 301 300 298 297 295 294 293 292 291 291 290 288 287 285 284 281 277 271 266 264 262 261 262 262 262 261 260 257 253 249 247 246 244 243 244 244 244 245 248
305 305 304 303 302 301 300 298 297 296 294 293 291 289 289 288 285 282 281 279 277 274 272 268 263 259 257 256 257 256 255 254 253 250 247 245 245 245 245 244 245 246 247 251
305 305 303 302 301 299 298 296 295 293 292 290 288 286 285 284 282 278 275 273 272 270 269 267 263 258 256 253 252 252 252 250 250 249 247 247 246 246 246 246 247 247 251 256
304 303 301 300 298 296 294 293 291 290 289 287 285 282 280 279 276 273 270 267 266 266 265 263 259 256 254 253 251 249 249 248 248 248 248 248 248 247 246 246 247 249 252 256
304 303 301 299 297 294 292 289 287 285 283 282 281 280 278 277 273 270 268 263 260 261 261 259 256 253 251 252 250 249 248 247 247 247 248 249 249 248 248 248 250 251 253 256
308 305 302 300 297 294 291 288 285 283 282 280 279 277 275 273 271 269 267 262 257 255 255 255 252 250 248 248 248 248 248 248 248 248 248 249 249 249 250 251 252 253 254 256
309 306 302 298 296 293 291 289 287 284 283 280 277 275 273 271 268 267 265 262 256 250 249 250 248 248 246 244 245 246 247 249 249 249 250 250 250 250 251 252 254 255 255 256
308 305 301 299 296 294 293 291 290 289 288 286 280 276 273 269 265 262 259 258 253 248 244 243 243 246 246 244 244 246 247 247 248 250 251 251 250 251 252 254 255 255 256 256
306 305 304 303 303 303 302 301 298 296 293 289 285 281 276 271 265 260 256 252 248 245 241 238 237 240 241 240 240 243 245 246 247 248 250 252 253 253 253 254 256 257 257 257
309 308 308 308 309 309 308 306 304 301 298 293 288 282 278 272 266 260 255 248 244 243 239 236 235 235 237 236 236 238 240 242 243 245 249 252 256 257 257 257 258 259 259 257
313 313 313 314 314 314 313 312 309 306 302 296 291 285 280 274 266 257 252 246 242 239 236 233 231 232 234 233 233 234 236 237 240 244 247 252 256 258 261 262 262 261 261 258
318 318 319 319 320 320 320 320 318 315 310 304 296 288 280 273 264 254 248 243 238 234 231 228 227 227 228 228 229 232 234 235 239 243 245 250 254 257 260 263 264 264 263 260
322 323 324 323 323 324 324 324 322 320 315 311 305 295 285 273 261 251 242 236 233 231 229 226 225 224 225 226 227 230 232 235 237 240 243 247 251 255 260 265 268 267 265 262
326 327 328 328 327 328 328 326 324 322 319 314 309 302 292 276 258 246 237 230 227 227 226 224 223 222 222 223 224 227 230 233 235 238 242 247 251 254 260 265 268 269 266 262
329 331 331 330 330 330 330 330 328 327 324 319 315 307 297 277 254 239 230 224 221 221 220 220 219 218 218 220 223 226 229 231 233 238 243 247 250 252 256 262 265 267 265 262
330 332 332 332 332 332 332 332 331 330 329 326 320 311 299 279 251 232 221 216 214 214 215 216 218 219 219 220 223 226 229 232 234 237 242 246 248 249 253 259 259 261 263 262
331 331 332 333 333 334 335 335 334 334 332 330 326 317 301 277 244 223 211 205 204 205 209 213 215 217 218 221 223 226 229 232 235 237 240 244 246 247 250 252 254 258 261 261
Height
5825 5822 5819 5816 5813 5809 5805 5802 5798 5795 5791 5789 5784 5780 5778 5775 5772 5769 5766 5763 5760 5756 5752 5749 5744 5740 5736 5731 5727 5722 5718 5715 5712 5710 5709 5708 5708 5709 5710 5711 5714 5716 5718 5720
5822 5818 5814 5811 5807 5803 5800 5796 5791 5787 5785 5780 5776 5772 5769 5766 5763 5761 5758 5755 5752 5749 5745 5742 5738 5734 5730 5726 5722 5718 5714 5710 5708 5707 5705 5704 5704 5704 5705 5706 5708 5710 5711 5713
5818 5814 5810 5807 5803 5799 5795 5790 5785 5781 5779 5773 5769 5765 5762 5758 5755 5753 5750 5747 5745 5742 5738 5735 5732 5728 5724 5721 5717 5713 5709 5706 5704 5703 5701 5700 5700 5700 5701 5702 5703 5705 5706 5708
5813 5810 5806 5804 5797 5793 5790 5785 5779 5774 5771 5766 5762 5758 5755 5751 5748 5745 5742 5740 5737 5734 5731 5729 5726 5722 5719 5716 5712 5709 5706 5703 5701 5699 5698 5697 5697 5697 5697 5698 5699 5700 5702 5703
5807 5804 5801 5797 5791 5787 5783 5780 5773 5768 5764 5760 5755 5751 5747 5743 5740 5737 5734 5732 5729 5727 5725 5722 5720 5717 5714 5711 5708 5705 5703 5700 5698 5696 5695 5694 5694 5694 5694 5695 5696 5697 5698 5699
5800 5796 5793 5791 5784 5779 5776 5773 5766 5762 5757 5752 5748 5744 5741 5735 5732 5729 5726 5723 5721 5719 5717 5715 5713 5711 5709 5706 5704 5701 5699 5697 5695 5694 5693 5692 5691 5691 5691 5692 5692 5693 5694 5695
5794 5790 5786 5782 5777 5773 5769 5765 5759 5754 5749 5744 5740 5737 5733 5728 5724 5720 5718 5715 5713 5711 5710 5708 5707 5705 5703 5701 5699 5697 5695 5694 5692 5691 5690 5689 5689 5688 5689 5689 5689 5690 5691 5692
5787 5783 5781 5773 5768 5763 5759 5754 5749 5744 5740 5735 5731 5727 5723 5719 5715 5712 5709 5706 5704 5703 5702 5701 5700 5699 5697 5696 5695 5693 5691 5690 5689 5688 5687 5687 5686 5686 5686 5686 5687 5687 5688 5689
5779 5777 5770 5764 5758 5752 5747 5743 5738 5734 5729 5724 5720 5717 5713 5709 5706 5702 5700 5697 5696 5694 5693 5693 5692 5692 5691 5690 5690 5689 5687 5686 5686 5685 5684 5684 5684 5684 5684 5684 5684 5685 5685 5686
5769 5764 5759 5753 5747 5742 5737 5732 5727 5722 5717 5713 5709 5705 5702 5699 5696 5693 5690 5688 5687 5686 5685 5684 5684 5684 5684 5684 5684 5683 5683 5682 5682 5681 5681 5681 5681 5681 5681 5681 5682 5682 5683 5683
5758 5753 5748 5742 5736 5730 5725 5719 5714 5710 5705 5701 5697 5694 5691 5688 5685 5682 5680 5679 5677 5676 5676 5676 5676 5676 5677 5677 5677 5677 5677 5677 5677 5677 5677 5677 5677 5678 5678 5678 5679 5679 5680 5680
5746 5740 5734 5728 5722 5716 5711 5706 5701 5696 5692 5687 5683 5681 5678 5676 5673 5671 5670 5668 5667 5667 5666 5666 5667 5667 5668 5669 5670 5671 5671 5672 5672 5672 5673 5673 5673 5674 5674 5675 5675 5676 5676 5677
5733 5726 5719 5713 5707 5701 5696 5691 5686 5681 5677 5674 5670 5667 5665 5663 5661 5659 5658 5658 5657 5657 5657 5657 5657 5658 5659 5661 5662 5663 5664 5665 5666 5667 5667 5668 5669 5669 5670 5670 5671 5671 5672 5673
5719 5712 5706 5699 5693 5686 5680 5675 5670 5666 5661 5658 5654 5652 5650 5649 5647 5646 5646 5645 5646 5646 5646 5647 5648 5649 5650 5652 5654 5655 5656 5658 5659 5660 5661 5662 5663 5664 5665 5665 5666 5667 5667 5668
5704 5696 5690 5683 5676 5670 5663 5658 5653 5649 5644 5640 5637 5635 5634 5632 5632 5631 5631 5632 5633 5634 5635 5637 5638 5640 5641 5643 5645 5646 5648 5650 5652 5653 5655 5656 5657 5658 5659 5660 5661 5661 5662 5662
5688 5679 5671 5664 5657 5651 5644 5638 5633 5628 5624 5621 5618 5616 5615 5615 5615 5615 5616 5617 5619 5622 5624 5625 5627 5630 5631 5634 5636 5638 5640 5642 5644 5646 5647 5649 5650 5651 5652 5654 5654 5655 5656 5656
5669 5661 5653 5645 5637 5630 5623 5615 5609 5605 5601 5598 5596 5595 5595 5595 5597 5597 5599 5601 5603 5607 5610 5613 5616 5618 5621 5624 5626 5629 5631 5634 5635 5637 5639 5641 5642 5644 5645 5646 5647 5648 5649 5650
5650 5640 5631 5622 5614 5607 5600 5593 5586 5580 5576 5573 5572 5572 5572 5573 5576 5578 5581 5584 5588 5592 5596 5600 5604 5607 5611 5614 5617 5620 5622 5625 5627 5629 5631 5632 5634 5636 5637 5639 5640 5641 5642 5643
5632 5621 5611 5601 5592 5583 5576 5570 5564 5558 5554 5550 5548 5548 5548 5550 5554 5557 5562 5567 5571 5576 5581 5586 5591 5596 5600 5604 5607 5610 5613 5616 5619 5621 5623 5625 5626 5628 5629 5631 5632 5633 5634 5635
5615 5604 5594 5584 5575 5565 5557 5550 5544 5539 5534 5530 5528 5527 5528 5530 5532 5537 5543 5549 5554 5560 5566 5572 5578 5584 5589 5594 5598 5601 5605 5608 5610 5613 5615 5617 5619 5620 5621 5623 5624 5625 5626 5627
5599 5589 5579 5569 5560 5551 5542 5534 5527 5521 5516 5513 5510 5508 5509 5511 5514 5518 5524 5532 5538 5544 5551 5558 5565 5572 5578 5583 5588 5592 5596 5599 5602 5605 5607 5610 5611 5613 5614 5615 5616 5617 5617 5619
5584 5575 5565 5556 5547 5539 5530 5522 5514 5508 5503 5498 5495 5493 5493 5495 5497 5502 5508 5515 5523 5529 5537 5545 5552 5559 5566 5572 5578 5583 5587 5591 5594 5597 5600 5602 5604 5606 5607 5607 5608 5609 5609 5610
5572 5562 5553 5544 5536 5528 5521 5513 5505 5498 5492 5487 5483 5480 5479 5480 5483 5487 5493 5500 5508 5516 5523 5532 5540 5547 5555 5562 5568 5574 5579 5583 5586 5589 5592 5595 5597 5598 5599 5600 5601 5601 5602 5603
5562 5553 5544 5535 5527 5519 5512 5505 5497 5490 5483 5477 5473 5469 5467 5467 5470 5474 5480 5487 5495 5504 5512 5521 5529 5537 5544 5552 5559 5565 5570 5575 5578 5582 5585 5587 5589 5591 5592 5593 5594 5594 5595 5595
5553 5544 5536 5528 5520 5512 5505 5497 5490 5483 5476 5470 5465 5460 5458 5457 5459 5462 5468 5476 5484 5493 5503 5512 5520 5528 5535 5543 5550 5556 5562 5566 5570 5574 5577 5579 5582 5584 5585 5586 5587 5588 5588 5589
5545 5537 5530 5522 5514 5506 5499 5491 5484 5477 5470 5463 5458 5453 5450 5449 5450 5453 5459 5467 5475 5485 5494 5503 5512 5520 5528 5535 5542 5548 5553 5558 5562 5566 5569 5572 5574 5576 5578 5579 5580 5581 5582 5582
5539 5532 5524 5517 5510 5502 5494 5487 5479 5472 5464 5458 5452 5447 5444 5442 5443 5447 5452 5460 5469 5478 5488 5497 5506 5514 5521 5528 5534 5540 5545 5550 5554 5557 5561 5563 5566 5568 5570 5572 5573 5575 5576 5576